User: anonymous   Login
Location: Barnston
(51.8500°N, 0.4000°E)
Time: 12:16:24
(UTC+00:00)
Language:

BlueWalker 3 - Orbit

View from above orbital plane
View from above orbital plane
View from above satellite
View from above satellite

Ground track
Ground track

The orbit data is extracted from the following two-line orbital elements,

1 53807U 22111AL  24057.07897458  .00009017  00000-0  37699-3 0  9990
2 53807  53.2408 349.4923 0010407 112.9343 247.2756 15.24305989 81127
Epoch (UTC): 26 February 2024 01:53:43
Eccentricity: 0.0010407
inclination: 53.2408°
perigee height: 486 km
apogee height: 500 km
right ascension of ascending node: 349.4923°
argument of perigee: 112.9343°
revolutions per day: 15.24305989
mean anomaly at epoch: 247.2756°
orbit number at epoch: 8112

The dashed part of the orbit path shows where the satellite is in the earth's shadow,  

DLR